Regional Weather Roundup
Issued by NWS Spokane, WA

Home | Current Version | Previous Version | Text Only | Print | Product List | Glossary On
Versions: 1 2 3 4 5 6 7 8 9 10 11 12 13 14 15 16 17 18 19 20 21 22 23 24 25 26 27 28 29 30 31 32 33 34 35 36 37 38 39 40 41 42 43 44 45 46 47 48 49 50
000
NZUS01 KOTX 252310
RWROTX
EASTERN WASHINGTON/NORTHERN IDAHO ROUNDUP
NATIONAL WEATHER SERVICE, SPOKANE WA
400 PM PDT SAT OCT 25 2014

Note: "fair" indicated few or no clouds below 12,000 feet with no
significant weather and/or obstructions to visibility.

...NORTHEAST WASHINGTON AND NORTHERN IDAHO PANHANDLE...

CITY           SKY/WX    TMP DP  RH WIND       PRES   REMARKS
SPOKANE INTL   PTSUNNY   67  41  38 S12       29.54S
SPOKANE DOWNTO PTSUNNY   66  45  46 NE3       29.54S
COEUR D ALENE  MOSUNNY   57  45  62 N15       29.56F
DEER PARK      PTSUNNY   57  45  64 N3        29.56S
SANDPOINT      CLOUDY    54  43  66 N7        29.60S

...SOUTHEAST WASHINGTON AND SOUTHERN IDAHO PANHANDLE...

CITY           SKY/WX    TMP DP  RH WIND       PRES   REMARKS
WALLA WALLA    PTSUNNY   56  52  86 CALM      29.51F FOG
PULLMAN/MOSCOW SUNNY     69  42  37 S14       29.59F
LEWISTON       MOSUNNY   68  48  48 E9        29.53F
LOWELL           N/A     54  49  83 CALM      29.65F

...COLUMBIA BASIN...

CITY           SKY/WX    TMP DP  RH WIND       PRES   REMARKS
EPHRATA        CLOUDY    57  47  69 CALM      29.48F
MOSES LAKE     PTSUNNY   56  49  77 SE7       29.50F
TRI CITIES     PTSUNNY   56  51  84 E7        29.50F
HERMISTON      PTSUNNY   61  50  67 N6        29.46F
PENDLETON      PTSUNNY   74  34  23 S36G45    29.49R

...EAST SLOPES CASCADES...

CITY           SKY/WX    TMP DP  RH WIND       PRES   REMARKS
THE DALLES     PTSUNNY   59  50  72 SE3       29.50F
YAKIMA         CLOUDY    56  48  74 SE7       29.49F
ELLENSBURG     LGT RAIN  58  46  64 SE12      29.48F
WENATCHEE      CLOUDY    56  46  69 S8        29.48F
OMAK           CLOUDY    52  45  77 CALM      29.49F

...SOUTHERN BRITISH COLUMBIA...

CITY           SKY/WX    TMP DP  RH WIND       PRES   REMARKS
PENTICTON      PTSUNNY   52  45  76 VRB2      29.47F
CASTLEGAR      PTSUNNY   50  43  76 N8        29.57F
CRANBROOK      LGT RAIN  48  37  66 CALM      29.67S

...WESTERN MONTANA...

CITY           SKY/WX    TMP DP  RH WIND       PRES   REMARKS
MISSOULA       PTSUNNY   52  44  74 W5        29.74F

...NEIGHBORING CITIES...

CITY           SKY/WX    TMP DP  RH WIND       PRES   REMARKS
SEATTLE        LGT RAIN  58  51  78 S9        29.30F
CALGARY        MOSUNNY   48  30  49 S14G24    29.63F



USA.gov is the U.S. government's official web portal to all federal, state and local government web resources and services.